Fort George G Meade, MD

3:09 PM EST on January 20, 2017 (GMT -0500)
Tipton

Weather History for KFME - September, 2013

Change the Weather History Date:

Saturday, September 14, 2013

  Actual Average (KBWI) Record (KBWI)
Temperature  
Mean Temperature 58 °F -  
Max Temperature 68 °F 81 °F 94 °F (1931)
Min Temperature 48 °F 60 °F 42 °F (1975)
Degree Days  
Heating Degree Days 7    
Growing Degree Days 8 (Base 50)    
Moisture  
Dew Point 45 °F    
Average Humidity 65    
Maximum Humidity 93    
Minimum Humidity 40    
Precipitation  
Precipitation 0.00 in - - ()
Sea Level Pressure  
Sea Level Pressure 30.08 in    
Wind  
Wind Speed 5 mph (NW)    
Max Wind Speed 12 mph    
Max Gust Speed 17 mph    
Visibility 10 miles    
Events      
Averages and records for this station are not official NWS values.
T = Trace of Precipitation, MM = Missing Value Source: NWS Daily Summary

Daily Weather History Graph

Daily Weather History Graph

Search for Another Location

Airport or City:

Trip Planner

Search our weather history database for the weather conditions in past years. The results will help you decide how hot, cold, wet, or windy it might be!

Date:

Astronomy

Sep. 14, 2013 Rise Set
Actual Time 6:47 AM EDT 7:16 PM EDT
Civil Twilight 6:20 AM EDT 7:43 PM EDT
Nautical Twilight 5:49 AM EDT 8:14 PM EDT
Astronomical Twilight 5:16 AM EDT 8:47 PM EDT
Moon 3:54 PM EDT (9/14) 1:18 AM EDT (9/14)
Length of Visible Light 13h 22m
Length of Day
12h 28m
Waxing Gibbous, 72% of the Moon is Illuminated
Sep 14
Waxing Gibbous
Sep 19
Full
Sep 26
Last Quarter
Oct 4
New
Oct 11
First Quarter

Hourly Weather History & Observations

Time (EDT) Temp. Dew Point Humidity Pressure Visibility Wind Dir Wind Speed Gust Speed Precip Events Conditions
12:09 AM 60.8 °F 48.2 °F 63% 29.95 in 10.0 mi NW 5.8 mph - N/A   Scattered Clouds
12:27 AM 59.0 °F 48.2 °F 67% 29.96 in 10.0 mi NW 8.1 mph - N/A   Scattered Clouds
12:48 AM 59.0 °F 48.2 °F 67% 29.96 in 10.0 mi NW 8.1 mph - N/A   Clear
1:09 AM 57.2 °F 46.4 °F 67% 29.97 in 10.0 mi NW 6.9 mph - N/A   Clear
1:30 AM 57.2 °F 46.4 °F 67% 29.97 in 10.0 mi NW 5.8 mph - N/A   Scattered Clouds
1:48 AM 55.4 °F 44.6 °F 67% 29.97 in 10.0 mi NW 8.1 mph - N/A   Scattered Clouds
2:09 AM 55.4 °F 46.4 °F 72% 29.98 in 10.0 mi NW 3.5 mph - N/A   Clear
2:30 AM 53.6 °F 46.4 °F 77% 29.98 in 10.0 mi Calm Calm - N/A   Clear
2:48 AM 53.6 °F 46.4 °F 77% 29.98 in 10.0 mi WNW 4.6 mph - N/A   Clear
3:09 AM 51.8 °F 46.4 °F 82% 29.98 in 10.0 mi WNW 5.8 mph - N/A   Clear
3:30 AM 51.8 °F 46.4 °F 82% 29.98 in 10.0 mi NW 5.8 mph - N/A   Clear
3:48 AM 51.8 °F 44.6 °F 76% 29.98 in 10.0 mi NW 3.5 mph - N/A   Clear
4:09 AM 50.0 °F 44.6 °F 82% 29.99 in 10.0 mi NW 3.5 mph - N/A   Clear
4:30 AM 50.0 °F 44.6 °F 82% 29.99 in 10.0 mi NW 4.6 mph - N/A   Clear
4:48 AM 50.0 °F 44.6 °F 82% 30.00 in 10.0 mi Calm Calm - N/A   Scattered Clouds
5:09 AM 50.0 °F 44.6 °F 82% 30.01 in 10.0 mi Calm Calm - N/A   Scattered Clouds
5:30 AM 50.0 °F 44.6 °F 82% 30.01 in 10.0 mi NW 3.5 mph - N/A   Mostly Cloudy
5:48 AM 51.8 °F 44.6 °F 76% 30.02 in 10.0 mi NW 3.5 mph - N/A   Scattered Clouds
6:09 AM 51.8 °F 44.6 °F 76% 30.03 in 10.0 mi Calm Calm - N/A   Mostly Cloudy
6:30 AM 51.8 °F 46.4 °F 82% 30.04 in 10.0 mi NW 3.5 mph - N/A   Overcast
6:48 AM 51.8 °F 44.6 °F 76% 30.05 in 10.0 mi NW 3.5 mph - N/A   Mostly Cloudy
7:09 AM 51.8 °F 44.6 °F 76% 30.05 in 10.0 mi NW 4.6 mph - N/A   Mostly Cloudy
7:30 AM 51.8 °F 46.4 °F 82% 30.06 in 10.0 mi NW 4.6 mph - N/A   Scattered Clouds
7:48 AM 51.8 °F 46.4 °F 82% 30.06 in 10.0 mi NW 5.8 mph - N/A   Clear
8:09 AM 53.6 °F 46.4 °F 77% 30.07 in 10.0 mi NW 6.9 mph - N/A   Clear
8:30 AM 55.4 °F 46.4 °F 72% 30.08 in 10.0 mi NW 6.9 mph - N/A   Clear
8:48 AM 59.0 °F 44.6 °F 59% 30.08 in 10.0 mi NW 8.1 mph - N/A   Clear
9:09 AM 59.0 °F 44.6 °F 59% 30.09 in 10.0 mi NNW 6.9 mph - N/A   Clear
9:30 AM 60.8 °F 44.6 °F 55% 30.10 in 10.0 mi NNW 4.6 mph - N/A   Clear
9:51 AM 60.8 °F 44.6 °F 55% 30.10 in 10.0 mi NNW 6.9 mph - N/A   Clear
10:09 AM 60.8 °F 44.6 °F 55% 30.10 in 10.0 mi North 6.9 mph - N/A   Clear
10:30 AM 62.6 °F 44.6 °F 52% 30.10 in 10.0 mi NNW 4.6 mph - N/A   Clear
10:51 AM 62.6 °F 44.6 °F 52% 30.10 in 10.0 mi North 8.1 mph - N/A   Clear
11:09 AM 64.4 °F 44.6 °F 49% 30.10 in 10.0 mi WNW 8.1 mph - N/A   Scattered Clouds
11:30 AM 64.4 °F 42.8 °F 45% 30.10 in 10.0 mi NNW 5.8 mph - N/A   Mostly Cloudy
11:51 AM 62.6 °F 42.8 °F 48% 30.10 in 10.0 mi WNW 9.2 mph - N/A   Mostly Cloudy
12:09 PM 66.2 °F 44.6 °F 46% 30.10 in 10.0 mi West 9.2 mph - N/A   Scattered Clouds
12:30 PM 64.4 °F 42.8 °F 45% 30.10 in 10.0 mi WNW 5.8 mph - N/A   Mostly Cloudy
12:51 PM 68.0 °F 44.6 °F 43% 30.11 in 10.0 mi WNW 6.9 mph - N/A   Mostly Cloudy
1:09 PM 64.4 °F 44.6 °F 49% 30.10 in 10.0 mi NNW 10.4 mph - N/A   Mostly Cloudy
1:30 PM 68.0 °F 44.6 °F 43% 30.10 in 10.0 mi NW 11.5 mph - N/A   Mostly Cloudy
1:51 PM 68.0 °F 42.8 °F 40% 30.10 in 10.0 mi NNW 8.1 mph - N/A   Mostly Cloudy
2:09 PM 68.0 °F 42.8 °F 40% 30.09 in 10.0 mi WNW 3.5 mph - N/A   Scattered Clouds
2:30 PM 68.0 °F 42.8 °F 40% 30.09 in 10.0 mi NW 4.6 mph 17.3 mph N/A   Scattered Clouds
2:51 PM 68.0 °F 42.8 °F 40% 30.09 in 10.0 mi WNW 11.5 mph 16.1 mph N/A   Scattered Clouds
3:09 PM 68.0 °F 42.8 °F 40% 30.09 in 10.0 mi North 8.1 mph - N/A   Scattered Clouds
3:30 PM 68.0 °F 42.8 °F 40% 30.08 in 10.0 mi North 6.9 mph - N/A   Clear
3:51 PM 68.0 °F 42.8 °F 40% 30.07 in 10.0 mi North 9.2 mph - N/A   Clear
4:09 PM 68.0 °F 42.8 °F 40% 30.08 in 10.0 mi North 8.1 mph - N/A   Clear
4:30 PM 66.2 °F 42.8 °F 43% 30.08 in 10.0 mi West 3.5 mph - N/A   Clear
4:51 PM 66.2 °F 42.8 °F 43% 30.08 in 10.0 mi NW 6.9 mph - N/A   Clear
5:09 PM 66.2 °F 42.8 °F 43% 30.09 in 10.0 mi WNW 4.6 mph - N/A   Clear
5:30 PM 66.2 °F 42.8 °F 43% 30.10 in 10.0 mi NW 6.9 mph - N/A   Clear
5:51 PM 66.2 °F 42.8 °F 43% 30.10 in 10.0 mi NNW 4.6 mph - N/A   Clear
6:12 PM 64.4 °F 44.6 °F 49% 30.10 in 10.0 mi WNW 4.6 mph - N/A   Clear
6:30 PM 64.4 °F 44.6 °F 49% 30.11 in 10.0 mi Calm Calm - N/A   Clear
6:51 PM 60.8 °F 46.4 °F 59% 30.11 in 10.0 mi NW 3.5 mph - N/A   Clear
7:12 PM 59.0 °F 51.8 °F 77% 30.12 in 10.0 mi Calm Calm - N/A   Clear
7:30 PM 57.2 °F 50.0 °F 77% 30.12 in 10.0 mi Calm Calm - N/A   Clear
7:51 PM 55.4 °F 50.0 °F 82% 30.13 in 10.0 mi Calm Calm - N/A   Clear
8:12 PM 53.6 °F 48.2 °F 82% 30.14 in 10.0 mi Calm Calm - N/A   Clear
8:30 PM 53.6 °F 48.2 °F 82% 30.15 in 10.0 mi Calm Calm - N/A   Clear
8:51 PM 53.6 °F 48.2 °F 82% 30.16 in 10.0 mi Calm Calm - N/A   Clear
9:12 PM 51.8 °F 48.2 °F 88% 30.16 in 10.0 mi Calm Calm - N/A   Clear
9:30 PM 51.8 °F 46.4 °F 82% 30.17 in 10.0 mi Calm Calm - N/A   Clear
9:51 PM 51.8 °F 46.4 °F 82% 30.17 in 10.0 mi Calm Calm - N/A   Clear
10:12 PM 50.0 °F 46.4 °F 87% 30.17 in 10.0 mi Calm Calm - N/A   Clear
10:30 PM 50.0 °F 46.4 °F 87% 30.18 in 10.0 mi Calm Calm - N/A   Clear
10:51 PM 50.0 °F 46.4 °F 87% 30.18 in 10.0 mi Calm Calm - N/A   Clear
11:12 PM 48.2 °F 44.6 °F 87% 30.19 in 10.0 mi Calm Calm - N/A   Clear
11:30 PM 48.2 °F 46.4 °F 93% 30.19 in 10.0 mi Calm Calm - N/A   Clear
11:51 PM 48.2 °F 46.4 °F 93% 30.19 in 10.0 mi Calm Calm - N/A   Clear